Home   Weather   Helena   Past weeks

Flag for USA Past Weather in Helena, Montana, USA — Yesterday and Last 2 Weeks

44 °F

Passing clouds.

Feels Like: 44 °F
Forecast: 37 / 61 °F
Wind: No wind

Location: Helena Regional Airport

Current Time: Oct 23, 2016 at 12:24:14 AM

Latest Report: Oct 22, 2016 at 11:53 PM

Visibility: 10 mi

Pressure: 30.09 "Hg (25.86 "Hg at 1239m altitude)

Humidity: 63%

Dew Point: 32 °F

Location of HelenaLocation

Past Weather in Helena — Graph


Helena Temperature Yesterday

Maximum temperature yesterday: 57 °F (at 1:53 PM)
Minimum temperature yesterday: 39 °F (at 6:53 AM)
Average temperature yesterday: 48 °F

High & Low Weather Summary for the Past Weeks

High73 °F (Oct 9, 1:53 PM)90% (Oct 8, 7:53 AM)30.46 "Hg (Oct 8, 7:53 AM)
Low23 °F (Oct 12, 4:53 AM)25% (Oct 9, 1:53 PM)29.39 "Hg (Oct 16, 12:53 AM)
Average47 °F61%29.98 "Hg
* Reported Oct 7 10:53 PM — Oct 22 10:53 PM, Helena, Weather by CustomWeather, © 2016

Note: Actual official high and low records may vary slightly from our data, if they occured in-between our weather recording intervals... More about our weather records


Helena Weather History for the Previous 24 Hours

Scroll right to see more
Time TempWeatherWind HumidityBarometerVisibility
10:53 PM
Sat, Oct 22
42 °FPassing clouds.No wind68%30.09 "Hg10 mi
9:53 PM46 °FClear.5 mph56%30.08 "Hg10 mi
8:53 PM47 °FClear.5 mph56%30.07 "Hg10 mi
7:53 PM47 °FClear.6 mph56%30.07 "Hg10 mi
6:53 PM50 °FClear.7 mph48%30.08 "Hg10 mi
5:53 PM53 °FSunny.14 mph43%30.05 "Hg10 mi
4:53 PM55 °FSunny.13 mph40%30.02 "Hg10 mi
3:53 PM57 °FSunny.15 mph39%30.01 "Hg10 mi
2:53 PM57 °FSunny.14 mph36%30.02 "Hg10 mi
1:53 PM57 °FSunny.14 mph36%30.02 "Hg10 mi
12:53 PM55 °FSunny.22 mph40%30.02 "Hg10 mi
11:53 AM53 °FSunny.16 mph48%30.04 "Hg10 mi
10:53 AM51 °FSunny.16 mph54%30.03 "Hg10 mi
9:53 AM47 °FSunny.9 mph61%30.02 "Hg10 mi
8:53 AM46 °FOvercast.6 mph63%30.01 "Hg10 mi
7:53 AM46 °FOvercast.17 mph68%29.95 "Hg10 mi
6:53 AM39 °FPassing clouds.7 mph86%29.89 "Hg10 mi
5:53 AM41 °FMostly cloudy.5 mph86%29.85 "Hg10 mi
4:53 AM42 °FPassing clouds.3 mph82%29.83 "Hg10 mi
3:53 AM43 °FPassing clouds.3 mph79%29.84 "Hg10 mi
2:53 AM43 °FClear.No wind76%29.84 "Hg10 mi
1:53 AM44 °FPassing clouds.No wind76%29.84 "Hg10 mi
12:53 AM45 °FOvercast.No wind74%29.85 "Hg10 mi
Weather by CustomWeather, © 2016

See weather overviewHow to use our weather pages